TimeEDT,TemperatureF,Dew PointF,Humidity,Sea Level PressureIn,VisibilityMPH,Wind Direction,Wind SpeedMPH,Gust SpeedMPH,PrecipitationIn,Events,Conditions,WindDirDegrees,DateUTC
12:52 AM,61.0,55.0,81,29.76,10.0,NW,6.9,-,N/A,,Overcast,310,2013-09-14 04:52:00
1:52 AM,61.0,54.0,78,29.78,10.0,NW,4.6,-,N/A,,Overcast,310,2013-09-14 05:52:00
2:52 AM,61.0,53.1,75,29.78,10.0,NW,6.9,-,N/A,,Overcast,310,2013-09-14 06:52:00
3:28 AM,60.8,53.6,77,29.78,10.0,NNW,3.5,-,N/A,,Overcast,330,2013-09-14 07:28:00
3:52 AM,59.0,52.0,78,29.79,10.0,WNW,4.6,-,N/A,,Scattered Clouds,300,2013-09-14 07:52:00
4:52 AM,59.0,52.0,78,29.80,10.0,NW,4.6,-,N/A,,Overcast,310,2013-09-14 08:52:00
5:52 AM,57.0,52.0,83,29.82,10.0,West,3.5,-,N/A,,Mostly Cloudy,280,2013-09-14 09:52:00
6:52 AM,57.9,52.0,81,29.84,10.0,WNW,6.9,-,N/A,,Overcast,290,2013-09-14 10:52:00
7:52 AM,60.1,52.0,75,29.85,10.0,WNW,8.1,-,N/A,,Scattered Clouds,290,2013-09-14 11:52:00
8:52 AM,62.1,52.0,70,29.87,10.0,NW,8.1,-,N/A,,Scattered Clouds,320,2013-09-14 12:52:00
9:52 AM,63.0,53.1,70,29.89,10.0,WNW,5.8,-,N/A,,Overcast,300,2013-09-14 13:52:00
10:52 AM,66.0,54.0,65,29.90,10.0,Variable,5.8,-,N/A,,Overcast,0,2013-09-14 14:52:00
11:52 AM,66.9,53.1,61,29.90,10.0,WNW,9.2,-,N/A,,Scattered Clouds,290,2013-09-14 15:52:00
12:52 PM,66.9,52.0,59,29.91,10.0,Variable,4.6,-,N/A,,Overcast,0,2013-09-14 16:52:00
1:52 PM,68.0,53.1,59,29.91,10.0,WNW,5.8,-,N/A,,Overcast,300,2013-09-14 17:52:00
2:52 PM,70.0,53.1,55,29.91,10.0,NW,8.1,-,N/A,,Mostly Cloudy,310,2013-09-14 18:52:00
3:52 PM,69.1,52.0,54,29.92,10.0,WNW,9.2,-,N/A,,Clear,300,2013-09-14 19:52:00
4:52 PM,68.0,51.1,55,29.94,10.0,WNW,10.4,-,N/A,,Clear,300,2013-09-14 20:52:00
5:52 PM,66.9,51.1,57,29.96,10.0,NW,5.8,-,N/A,,Clear,310,2013-09-14 21:52:00
6:52 PM,64.0,51.1,63,29.98,10.0,Calm,Calm,-,N/A,,Mostly Cloudy,0,2013-09-14 22:52:00
7:52 PM,63.0,52.0,67,30.01,10.0,NW,4.6,-,N/A,,Overcast,320,2013-09-14 23:52:00
8:52 PM,62.1,50.0,65,30.03,10.0,NW,8.1,-,N/A,,Overcast,320,2013-09-15 00:52:00
9:52 PM,61.0,48.9,64,30.04,10.0,NNW,9.2,-,N/A,,Partly Cloudy,330,2013-09-15 01:52:00
10:52 PM,59.0,48.9,69,30.05,10.0,NW,5.8,-,N/A,,Clear,320,2013-09-15 02:52:00
11:52 PM,55.9,48.9,77,30.06,10.0,WNW,4.6,-,N/A,,Clear,290,2013-09-15 03:52:00